Wind_Speed
8 10 11 13 14 17 17 15 12 10 6 4 6 7 8 7 7 4 4 5 5 6 5 4 3 2 2 3 3 2 2 3 3
9 10 11 14 17 18 18 18 15 17 18 17 12 8 7 7 7 7 7 7 6 5 5 3 4 4 3 4 4 2 1 1 2
10 10 12 13 15 18 17 15 14 15 15 18 12 5 7 8 9 9 8 6 4 3 3 4 5 5 5 5 6 6 4 1 2
11 12 13 14 15 17 17 17 14 13 7 10 11 11 11 10 8 6 5 5 4 2 2 3 4 4 5 6 6 6 5 4 4
11 11 12 12 15 18 18 18 15 14 11 8 11 12 13 11 9 7 5 3 3 3 2 1 2 3 6 6 5 6 6 6 5
12 13 14 13 13 16 19 19 17 16 15 13 13 14 12 10 9 7 5 2 2 2 1 1 2 4 4 4 4 6 7 6 5
13 12 14 14 14 16 20 21 20 19 14 14 17 15 12 10 9 7 6 4 3 4 5 5 2 2 2 2 3 5 6 6 5
15 15 15 14 15 12 17 18 19 19 19 19 16 14 13 11 8 6 4 3 2 3 2 2 7 10 9 5 1 3 5 6 6
18 18 17 16 13 15 15 16 16 16 16 15 17 14 12 9 7 6 4 2 2 2 2 3 2 1 3 6 5 3 4 5 5
20 19 18 16 15 15 16 17 18 19 18 16 15 13 11 10 8 6 4 2 2 2 3 1 1 2 2 4 5 3 1 4 4
19 17 15 14 15 18 16 16 16 16 17 17 15 12 11 10 8 6 5 4 3 4 4 3 0 2 1 2 3 3 3 5 3
14 15 15 19 19 19 19 23 19 16 14 13 14 14 11 10 9 6 4 2 4 6 4 2 2 2 4 5 5 6 7 5 4
12 13 15 18 20 21 22 25 25 23 18 18 15 13 13 11 8 5 5 6 8 6 4 2 0 2 4 6 7 7 7 6 4
12 16 18 18 20 18 19 23 22 21 17 16 15 12 10 8 8 7 6 7 7 4 4 3 1 2 4 4 3 5 6 5 5
10 10 12 12 12 12 11 16 18 18 18 15 13 12 10 10 9 6 6 7 6 4 4 4 4 4 4 4 5 5 7 8 8
9 14 16 13 14 14 11 14 17 16 15 17 15 12 11 10 9 7 7 6 5 5 3 4 5 6 6 4 4 5 9 10 11
10 12 15 11 10 9 9 11 13 14 16 16 14 12 9 8 7 7 7 6 6 6 6 7 8 7 7 6 7 6 6 5 5
12 12 14 12 11 8 10 12 13 13 15 15 12 10 8 7 6 6 6 7 8 10 11 11 10 10 8 8 10 8 7 5 3
14 14 11 11 12 17 16 17 16 13 13 12 10 8 7 6 6 6 5 6 10 14 16 17 17 18 17 13 14 14 12 10 8
18 16 16 14 15 16 16 13 11 9 9 9 8 6 5 4 5 6 7 8 9 9 9 12 13 14 16 18 17 16 15 14 13
Wind_Direction
146 154 153 156 160 161 164 161 153 142 150 168 177 191 196 213 234 185 143 125 118 115 119 101 77 40 23 10 351 2 225 240 258
161 160 155 155 162 166 167 163 160 170 163 161 164 186 199 184 169 149 132 128 117 105 97 92 80 83 89 83 82 88 116 225 266
163 161 159 159 162 164 161 166 174 180 191 160 148 153 162 154 152 152 137 127 107 76 72 86 94 89 89 91 85 79 83 62 356
166 170 169 164 158 162 161 164 178 188 164 135 153 159 154 148 141 133 122 113 98 56 21 65 95 94 100 93 75 57 32 1 343
165 160 161 161 156 163 167 169 171 173 177 153 154 159 157 148 141 130 115 99 85 65 57 53 93 110 117 95 64 28 6 353 339
167 158 151 155 161 166 173 172 169 165 174 174 163 163 156 149 140 139 129 109 66 68 95 96 93 123 124 95 47 29 20 24 19
172 169 163 162 166 173 171 169 168 175 175 173 167 161 157 146 152 156 162 168 182 170 155 140 112 84 40 35 66 54 45 46 35
177 174 173 177 174 174 170 168 169 169 170 167 166 160 156 162 168 177 184 175 190 174 164 183 162 159 158 148 86 38 49 46 40
190 183 184 179 181 173 174 166 162 161 160 163 162 165 160 158 178 188 187 153 171 146 193 175 158 174 210 177 157 143 52 47 32
199 190 189 181 178 174 176 171 166 162 163 164 166 162 162 169 175 185 185 178 171 141 228 204 45 339 13 170 167 170 23 20 30
194 193 180 175 176 172 166 165 168 167 168 168 165 169 171 167 172 187 203 201 191 223 234 214 105 221 256 267 249 268 307 329 5
193 191 182 179 175 159 163 168 166 164 165 165 180 180 173 178 189 196 217 232 241 242 241 257 336 302 268 268 278 278 282 305 331
169 173 174 170 160 168 166 172 163 162 178 177 187 188 188 187 190 201 233 233 229 220 223 241 139 349 326 294 267 269 279 293 326
171 162 165 163 167 170 163 174 170 163 174 187 188 192 184 184 202 218 233 235 237 240 259 280 264 314 328 341 330 256 273 280 319
145 134 136 148 144 125 153 174 169 166 184 185 180 184 191 195 200 215 222 221 232 237 247 260 268 296 299 310 311 289 282 284 300
116 125 127 134 137 138 155 171 176 169 179 181 186 187 198 197 202 212 211 217 225 253 237 251 271 271 286 305 302 298 301 295 292
113 117 116 119 114 126 138 162 175 187 182 184 186 195 194 197 210 219 226 234 236 247 250 250 258 267 272 284 290 288 298 297 286
120 122 121 130 133 152 159 164 169 175 173 184 185 181 181 208 231 239 249 251 256 250 253 249 260 266 269 272 276 283 289 293 278
130 129 131 129 148 151 161 158 159 155 170 172 169 172 195 229 247 247 253 262 267 263 260 268 269 264 257 264 269 271 278 275 278
128 133 141 136 146 142 147 145 139 149 161 173 182 194 204 229 244 253 252 256 272 282 279 274 276 266 257 256 265 266 266 265 262
Height
756 762 769 773 781 786 791 794 795 798 800 803 807 810 812 813 815 818 819 821 822 823 824 824 824 824 824 824 824 823 824 825 825
757 760 768 773 780 785 789 791 793 793 793 797 804 808 809 811 815 817 818 820 821 823 824 824 823 823 823 822 823 823 823 824 823
755 759 767 772 778 783 787 790 791 793 795 798 801 807 810 813 815 817 817 819 821 823 824 823 823 823 823 822 821 821 822 823 821
751 757 763 769 775 781 784 787 790 792 796 798 802 808 811 814 816 818 820 821 820 821 823 822 822 822 822 822 821 821 820 820 819
749 754 761 766 771 778 781 785 788 791 795 798 801 806 809 812 815 818 821 822 822 822 823 823 822 821 821 821 821 819 819 818 817
751 755 759 764 770 773 777 780 784 787 792 796 799 805 809 812 814 818 819 822 823 822 823 824 823 822 821 820 820 818 817 816 816
748 754 757 760 765 768 773 777 782 786 790 795 798 802 808 813 816 817 817 817 818 818 819 821 824 824 825 824 821 818 817 816 816
748 752 755 758 761 767 775 779 783 787 791 795 802 805 807 810 811 815 818 818 819 820 822 822 815 811 813 817 822 822 819 817 815
744 746 749 753 761 766 773 780 786 792 796 800 801 806 808 809 814 817 818 818 821 820 823 822 820 820 819 815 815 815 816 816 817
740 740 745 752 759 765 770 776 782 787 793 798 804 806 808 811 815 819 819 818 818 819 823 821 820 821 819 817 816 814 814 813 813
731 737 744 751 758 763 772 778 784 789 793 797 802 805 809 813 816 818 818 817 816 820 821 819 815 816 817 818 817 815 813 812 811
729 735 741 747 754 762 768 772 780 790 795 797 803 805 807 809 812 814 816 817 819 822 820 818 815 815 815 815 815 814 813 812 810
728 735 741 747 753 757 764 770 773 781 792 795 801 804 804 805 807 810 813 815 817 816 815 813 812 812 813 813 812 811 811 812 810
728 731 738 746 751 756 763 771 775 779 790 795 798 803 804 804 807 810 812 815 816 814 814 813 811 811 810 810 810 810 809 810 810
732 735 744 751 756 761 767 773 777 782 788 794 798 801 802 803 806 809 811 812 812 811 811 811 809 810 810 809 808 808 808 808 808
739 742 748 753 758 763 770 774 778 783 789 793 796 798 800 801 803 805 807 808 808 808 807 808 809 808 808 807 807 807 806 805 805
745 749 752 756 760 766 771 775 777 782 787 791 793 796 800 802 803 803 804 805 804 804 804 805 808 805 805 804 805 805 805 804 803
748 752 755 757 761 768 773 776 780 784 786 790 794 796 797 801 802 801 801 801 801 802 802 803 803 802 802 802 803 804 803 803 802
750 754 758 762 767 769 778 779 783 785 788 790 793 793 796 798 799 798 797 798 800 799 797 798 798 798 798 800 799 799 800 800 799
754 760 762 766 772 774 778 781 782 784 785 788 790 792 793 794 794 795 796 796 798 795 795 794 794 793 793 794 794 794 795 796 797